Location: Newark
(43.0000°N, 1.6781°W)
Time: 08:30:05
(UTC+00:00)

AO-7 - Pass Details

Date: 09 December 2022
Orbit: 1440 x 1459 km, 101.9° (Epoch: 28 January)

Event Time Altitude Azimuth Distance (km) Brightness Sun altitude
Rises 06:29:18 0° 12° (NNE) 4,545 ? -10.1°
Reaches altitude 10° 06:32:24 10° 3° (N) 3,565 ? -9.6°
Maximum altitude 06:39:26 33° 305° (NW) 2,260 ? -8.4°
Drops below altitude 10° 06:46:30 10° 246° (WSW) 3,562 ? -7.2°
Sets 06:49:37 0° 237° (WSW) 4,540 ? -6.7°
